| time (UTC) | temp F | wind direction | speed MPH | gust MPH | rain 1hr in | rain 24hr in | rain mn in | humidity % | barometer mb |
| 20260902041955 | 50 | 260 | 12.0 | 0.0 | 0.00 | 0.00 | 0.00 | 76 | |
| 20260902031655 | 50 | 280 | 8.0 | 0.0 | 0.00 | 0.00 | 0.00 | 76 | |
| 20260902021856 | 50 | 280 | 10.0 | 0.0 | 0.00 | 0.00 | 0.00 | 76 | |
| 20260902011855 | 50 | 270 | 13.0 | 0.0 | 0.00 | 0.00 | 0.00 | 76 | |
| 20260902001655 | 52 | 270 | 14.0 | 0.0 | 0.00 | 0.00 | 0.00 | 71 | |
| 20260901231839 | 52 | 260 | 15.0 | 0.0 | 0.00 | 0.00 | 0.00 | 71 | |
| 20260901221955 | 52 | 270 | 13.0 | 0.0 | 0.00 | 0.00 | 0.00 | 71 | |
| 20260901211655 | 52 | 270 | 12.0 | 0.0 | 0.00 | 0.00 | 0.00 | 71 | |
| 20260901201854 | 52 | 270 | 12.0 | 0.0 | 0.00 | 0.00 | 0.00 | 71 | |
| 20260901191855 | 52 | 270 | 13.0 | 0.0 | 0.00 | 0.00 | 0.00 | 71 | |
| 20260901181655 | 52 | 270 | 12.0 | 0.0 | 0.00 | 0.00 | 0.00 | 71 | |
| 20260901171855 | 55 | 270 | 12.0 | 0.0 | 0.00 | 0.00 | 0.00 | 66 | |
| 20260901161955 | 57 | 270 | 9.0 | 0.0 | 0.00 | 0.00 | 0.00 | 67 | |
| 20260901151655 | 57 | 260 | 14.0 | 22.0 | 0.00 | 0.00 | 0.00 | 62 | |
| 20260901141854 | 57 | 280 | 10.0 | 17.0 | 0.00 | 0.00 | 0.00 | 67 | |
| 20260901131755 | 55 | 260 | 15.0 | 26.0 | 0.00 | 0.00 | 0.00 | 71 | |
| 20260901121655 | 54 | 260 | 14.0 | 22.0 | 0.00 | 0.00 | 0.00 | 76 | |
| 20260901111755 | 52 | 260 | 14.0 | 22.0 | 0.00 | 0.00 | 0.00 | 87 | |
| 20260901101955 | 50 | 250 | 13.0 | 22.0 | 0.00 | 0.00 | 0.00 | 87 | |
| 20260901091655 | 48 | 250 | 14.0 | 24.0 | 0.00 | 0.00 | 0.00 | 99 | |
| 20260901081855 | 46 | 260 | 18.0 | 29.0 | 0.00 | 0.00 | 0.00 | 99 | |
| 20260901071855 | 46 | 260 | 20.0 | 30.0 | 0.00 | 0.00 | 0.00 | 99 | |
| 20260901061654 | 46 | 260 | 20.0 | 31.0 | 0.00 | 0.00 | 0.00 | 99 | |
| 20260901051754 | 48 | 250 | 20.0 | 29.0 | 0.00 | 0.00 | 0.00 | 99 |